STARLINK-31663, 59576

Orbit data source: Space-Track

STARLINK-31663, 59576 is a payload satellite owned by SpaceX/Seattle (US) in LEO that was launched on Tue, 23 Apr 2024 UTC via an FALCON 9 launch vehicle from the Air Force Eastern Test Range (AFETR). Payload-class satellites include a variety of spacecraft equipped with specific instruments for various scientific and technological missions. These include communications satellites like Starlink; space stations such as the ISS; scientific satellites like the Hubble; Earth observation satellites from companies like Planet Labs, Umbra, and HawkEye 360; GPS; miniature CubeSats for education and research; and military/defense satellites.

Loading next visibility...
Identifier
59576, 2024-076N
Orbit
LEO
Country
Flag of USUS
Related business
Manufacturer
SpaceX/Seattle
Mission
Operational Commercial Communications
Bus & Motor
STARLINK V2M, Unknown motor
Mass
730 kg wet, ~700 kg dry
Launch date (UTC)
2024-04-23 (2 years ago)
Launch vehicle
FALCON 9
Launch site
Air Force Eastern Test Range (AFETR)
Object type
Payload
Rocket body
Debris
Shape & HBR
Box + 2 Pan, 17.7 m
Radar Cross Section
33.884 m², Large (>1 m²)

Expand to show TLE details & history
Last TLE update: 8 hours ago

TLE from 8 hours ago
0 STARLINK-31663
1 59576U 24076N   25340.93289178  .00006537  00000-0  24702-3 0  9991
2 59576  43.0016 173.1093 0001100 256.7692 103.3037 15.27559269 92314
Epoch: 2025-12-06T22:23Z
TLE epoch observation values (Epoch: 2025-12-06T22:23:21.849Z)
Latitude
-0.00003°
Longitude
121.3147°
Altitude
483.06 km
Speed
7.626 km/s
True Right ascension
11h 32m 26s
True Declination
0° 00' 00"
Sunlit
Object was in daylight at epoch
Visualization orbit readout
Latitude
Unknown
Longitude
Unknown
Altitude
Unknown
Speed
Unknown
Apparent Right ascension
Unknown
Apparent Declination
Unknown
Sunlit
N/A
Visualization observer readout
Local Sidereal Time
04:42:51
Azimuth
Unknown
Elevation
Unknown
Doppler factor
Unknown
Orbital elements
Apogee altitude
485.811 km
Perigee altitude
484.301 km
Semi-major axis
6,863.193 km
Eccentricity
0.00011
Inclination
43.0016°
RAAN
173.1093°
Arg. of periapsis
256.7692°
True anomaly
103.31597°
Mean anomaly
103.3037°
Eccentric anomaly
103.30983°
Mean motion
3.81728 °/min
Orbital period
94.31 mins
BSTAR
0.00024702
Loading maneuver chart data...
Computing Atmospheric mass density...
Loading historical data...
Loading historical data...
Loading historical data...
Loading historical data...
Loading historical data...
Loading historical data...
Loading historical data...

Documentation

Showing up to 5 results
|